TJS-2

Last updated on Thu Jul 03 2025 00:02:47 GMT+0000 (Coordinated Universal Time)

1 41911U 17001A 25183.58251868 .00000000 00000+0 00000+0 0 9995 2 41911 0.0779 259.4679 0001358 217.4149 80.2063 1.00274522 31217
UTC large
Height (km)
Speed (km/s)
/
Latitude / Longitude
Inclination (degrees)
Orbital Period (minutes)
Azimuth
Elevation
Range (km)
Doppler Factor

Next 0 passes for location: London (51.5072 / 0.1276)

Sorry there are no passes over London.